![]() |
EMODnet Physics ERDDAP
Easier access to scientific data |
log in|
Brought to you by EMODnet Physics |
| Dataset Title: | NDBC - Collection of dew point temperature (DEWT) TimeSeries - IN SITU MultiPointTimeSeriesObservation
|
| Institution: | NDBC (Dataset ID: TS_DEWT_NDBC) |
| Information: | Summary
| License
| FGDC
| ISO 19115
| Metadata
| Background
| Subset
| Data Access Form
| Make a graph
|
| Name | Last modified | Size | Description | |
|---|---|---|---|---|
| Parent Directory | - | - | ||
| 46086_TS_DEWT_012004.nc | 14-Nov-2024 04:25 | 429903 | ||
| 46086_TS_DEWT_012005.nc | 14-Nov-2024 05:01 | 427538 | ||
| 46086_TS_DEWT_012006.nc | 14-Nov-2024 05:49 | 429882 | ||
| 46086_TS_DEWT_012007.nc | 14-Nov-2024 06:36 | 429907 | ||
| 46086_TS_DEWT_012008.nc | 14-Nov-2024 07:13 | 429264 | ||
| 46086_TS_DEWT_012009.nc | 14-Nov-2024 07:36 | 429264 | ||
| 46086_TS_DEWT_012010.nc | 14-Nov-2024 08:14 | 429276 | ||
| 46086_TS_DEWT_012011.nc | 14-Nov-2024 08:52 | 429284 | ||
| 46086_TS_DEWT_012012.nc | 14-Nov-2024 09:42 | 429264 | ||
| 46086_TS_DEWT_012013.nc | 14-Nov-2024 10:22 | 429255 | ||
| 46086_TS_DEWT_012014.nc | 14-Nov-2024 11:11 | 429280 | ||
| 46086_TS_DEWT_012015.nc | 14-Nov-2024 12:00 | 429025 | ||
| 46086_TS_DEWT_012016.nc | 14-Nov-2024 12:48 | 429350 | ||
| 46086_TS_DEWT_012017.nc | 14-Nov-2024 13:38 | 429358 | ||
| 46086_TS_DEWT_012018.nc | 14-Nov-2024 14:25 | 429364 | ||
| 46086_TS_DEWT_012019.nc | 14-Nov-2024 15:13 | 429352 | ||
| 46086_TS_DEWT_012020.nc | 14-Nov-2024 16:08 | 429354 | ||
| 46086_TS_DEWT_012021.nc | 14-Nov-2024 17:03 | 429363 | ||
| 46086_TS_DEWT_012022.nc | 14-Nov-2024 17:48 | 429358 | ||
| 46086_TS_DEWT_012023.nc | 14-Nov-2024 18:43 | 429356 | ||
| 46086_TS_DEWT_012025.nc | 07-Feb-2025 11:23 | 429357 | ||
| 46086_TS_DEWT_012026.nc | 02-Feb-2026 18:32 | 429356 | ||
| 46086_TS_DEWT_022004.nc | 14-Nov-2024 04:29 | 429350 | ||
| 46086_TS_DEWT_022005.nc | 14-Nov-2024 05:05 | 429560 | ||
| 46086_TS_DEWT_022006.nc | 14-Nov-2024 05:53 | 429560 | ||
| 46086_TS_DEWT_022007.nc | 14-Nov-2024 06:39 | 429546 | ||
| 46086_TS_DEWT_022008.nc | 14-Nov-2024 07:16 | 429560 | ||
| 46086_TS_DEWT_022009.nc | 14-Nov-2024 07:40 | 429563 | ||
| 46086_TS_DEWT_022010.nc | 14-Nov-2024 08:18 | 429563 | ||
| 46086_TS_DEWT_022011.nc | 14-Nov-2024 08:55 | 429519 | ||
| 46086_TS_DEWT_022012.nc | 14-Nov-2024 09:45 | 429563 | ||
| 46086_TS_DEWT_022013.nc | 14-Nov-2024 10:26 | 429564 | ||
| 46086_TS_DEWT_022014.nc | 14-Nov-2024 11:15 | 429560 | ||
| 46086_TS_DEWT_022015.nc | 14-Nov-2024 12:07 | 429566 | ||
| 46086_TS_DEWT_022016.nc | 14-Nov-2024 12:51 | 429556 | ||
| 46086_TS_DEWT_022017.nc | 14-Nov-2024 13:42 | 429562 | ||
| 46086_TS_DEWT_022018.nc | 14-Nov-2024 14:29 | 429563 | ||
| 46086_TS_DEWT_022019.nc | 14-Nov-2024 15:18 | 429556 | ||
| 46086_TS_DEWT_022020.nc | 14-Nov-2024 16:13 | 421122 | ||
| 46086_TS_DEWT_022021.nc | 14-Nov-2024 17:06 | 429561 | ||
| 46086_TS_DEWT_022022.nc | 14-Nov-2024 17:52 | 429541 | ||
| 46086_TS_DEWT_022023.nc | 14-Nov-2024 18:46 | 429564 | ||
| 46086_TS_DEWT_022025.nc | 01-Mar-2025 08:00 | 429559 | ||
| 46086_TS_DEWT_022026.nc | 01-Mar-2026 08:56 | 429597 | ||
| 46086_TS_DEWT_032004.nc | 14-Nov-2024 04:33 | 429559 | ||
| 46086_TS_DEWT_032005.nc | 14-Nov-2024 05:09 | 429589 | ||
| 46086_TS_DEWT_032006.nc | 14-Nov-2024 05:57 | 429603 | ||
| 46086_TS_DEWT_032007.nc | 14-Nov-2024 06:42 | 429569 | ||
| 46086_TS_DEWT_032008.nc | 14-Nov-2024 07:18 | 429611 | ||
| 46086_TS_DEWT_032009.nc | 14-Nov-2024 07:43 | 429602 | ||
| 46086_TS_DEWT_032010.nc | 14-Nov-2024 08:21 | 429683 | ||
| 46086_TS_DEWT_032011.nc | 14-Nov-2024 08:57 | 429693 | ||
| 46086_TS_DEWT_032012.nc | 14-Nov-2024 09:49 | 429664 | ||
| 46086_TS_DEWT_032013.nc | 14-Nov-2024 10:30 | 429406 | ||
| 46086_TS_DEWT_032014.nc | 14-Nov-2024 11:19 | 429692 | ||
| 46086_TS_DEWT_032015.nc | 14-Nov-2024 12:11 | 429682 | ||
| 46086_TS_DEWT_032016.nc | 14-Nov-2024 12:55 | 429362 | ||
| 46086_TS_DEWT_032017.nc | 14-Nov-2024 13:46 | 429685 | ||
| 46086_TS_DEWT_032018.nc | 14-Nov-2024 14:33 | 429679 | ||
| 46086_TS_DEWT_032019.nc | 14-Nov-2024 15:23 | 429678 | ||
| 46086_TS_DEWT_032020.nc | 14-Nov-2024 16:18 | 429686 | ||
| 46086_TS_DEWT_032021.nc | 14-Nov-2024 17:10 | 429686 | ||
| 46086_TS_DEWT_032022.nc | 14-Nov-2024 17:58 | 429904 | ||
| 46086_TS_DEWT_032023.nc | 14-Nov-2024 18:48 | 429902 | ||
| 46086_TS_DEWT_032025.nc | 02-Apr-2025 06:21 | 429902 | ||
| 46086_TS_DEWT_032026.nc | 24-Mar-2026 09:18 | 429885 | ||
| 46086_TS_DEWT_042004.nc | 14-Nov-2024 04:36 | 429901 | ||
| 46086_TS_DEWT_042005.nc | 14-Nov-2024 05:11 | 429890 | ||
| 46086_TS_DEWT_042006.nc | 14-Nov-2024 06:00 | 429871 | ||
| 46086_TS_DEWT_042007.nc | 14-Nov-2024 06:45 | 429902 | ||
| 46086_TS_DEWT_042008.nc | 14-Nov-2024 07:21 | 429905 | ||
| 46086_TS_DEWT_042009.nc | 14-Nov-2024 07:46 | 429899 | ||
| 46086_TS_DEWT_042010.nc | 14-Nov-2024 08:25 | 429905 | ||
| 46086_TS_DEWT_042011.nc | 14-Nov-2024 09:01 | 429902 | ||
| 46086_TS_DEWT_042012.nc | 14-Nov-2024 09:52 | 429901 | ||
| 46086_TS_DEWT_042013.nc | 14-Nov-2024 10:34 | 429907 | ||
| 46086_TS_DEWT_042014.nc | 14-Nov-2024 11:23 | 429905 | ||
| 46086_TS_DEWT_042015.nc | 14-Nov-2024 12:16 | 429909 | ||
| 46086_TS_DEWT_042016.nc | 14-Nov-2024 12:59 | 429901 | ||
| 46086_TS_DEWT_042017.nc | 14-Nov-2024 13:50 | 429905 | ||
| 46086_TS_DEWT_042018.nc | 14-Nov-2024 14:38 | 427333 | ||
| 46086_TS_DEWT_042019.nc | 14-Nov-2024 15:28 | 429263 | ||
| 46086_TS_DEWT_042020.nc | 14-Nov-2024 16:23 | 429267 | ||
| 46086_TS_DEWT_042021.nc | 14-Nov-2024 17:12 | 429266 | ||
| 46086_TS_DEWT_042022.nc | 14-Nov-2024 18:03 | 429281 | ||
| 46086_TS_DEWT_042023.nc | 14-Nov-2024 18:51 | 429156 | ||
| 46086_TS_DEWT_042025.nc | 01-May-2025 04:19 | 429240 | ||
| 46086_TS_DEWT_052004.nc | 14-Nov-2024 04:39 | 429283 | ||
| 46086_TS_DEWT_052005.nc | 14-Nov-2024 05:17 | 429350 | ||
| 46086_TS_DEWT_052006.nc | 14-Nov-2024 06:05 | 429354 | ||
| 46086_TS_DEWT_052007.nc | 14-Nov-2024 06:48 | 429363 | ||
| 46086_TS_DEWT_052008.nc | 14-Nov-2024 07:24 | 429359 | ||
| 46086_TS_DEWT_052009.nc | 14-Nov-2024 07:48 | 429358 | ||
| 46086_TS_DEWT_052010.nc | 14-Nov-2024 08:28 | 429365 | ||
| 46086_TS_DEWT_052011.nc | 14-Nov-2024 09:05 | 429360 | ||
| 46086_TS_DEWT_052012.nc | 14-Nov-2024 09:55 | 429353 | ||
| 46086_TS_DEWT_052013.nc | 14-Nov-2024 10:37 | 429361 | ||
| 46086_TS_DEWT_052014.nc | 14-Nov-2024 11:26 | 429361 | ||
| 46086_TS_DEWT_052015.nc | 14-Nov-2024 12:19 | 429348 | ||
| 46086_TS_DEWT_052016.nc | 14-Nov-2024 13:03 | 429356 | ||
| 46086_TS_DEWT_052017.nc | 14-Nov-2024 13:54 | 429558 | ||
| 46086_TS_DEWT_052018.nc | 14-Nov-2024 14:42 | 429538 | ||
| 46086_TS_DEWT_052019.nc | 14-Nov-2024 15:32 | 429545 | ||
| 46086_TS_DEWT_052020.nc | 14-Nov-2024 16:28 | 429547 | ||
| 46086_TS_DEWT_052021.nc | 14-Nov-2024 17:15 | 429564 | ||
| 46086_TS_DEWT_052022.nc | 14-Nov-2024 18:08 | 429561 | ||
| 46086_TS_DEWT_052023.nc | 14-Nov-2024 18:53 | 429559 | ||
| 46086_TS_DEWT_052025.nc | 01-Jun-2025 04:08 | 429558 | ||
| 46086_TS_DEWT_062004.nc | 14-Nov-2024 04:42 | 429558 | ||
| 46086_TS_DEWT_062005.nc | 14-Nov-2024 05:22 | 429563 | ||
| 46086_TS_DEWT_062006.nc | 14-Nov-2024 06:08 | 429559 | ||
| 46086_TS_DEWT_062007.nc | 14-Nov-2024 06:51 | 429562 | ||
| 46086_TS_DEWT_062009.nc | 14-Nov-2024 07:51 | 429566 | ||
| 46086_TS_DEWT_062010.nc | 14-Nov-2024 08:31 | 429556 | ||
| 46086_TS_DEWT_062011.nc | 14-Nov-2024 09:10 | 429563 | ||
| 46086_TS_DEWT_062012.nc | 14-Nov-2024 09:57 | 429556 | ||
| 46086_TS_DEWT_062013.nc | 14-Nov-2024 10:41 | 429563 | ||
| 46086_TS_DEWT_062014.nc | 14-Nov-2024 11:32 | 429561 | ||
| 46086_TS_DEWT_062015.nc | 14-Nov-2024 12:22 | 429560 | ||
| 46086_TS_DEWT_062016.nc | 14-Nov-2024 13:07 | 429596 | ||
| 46086_TS_DEWT_062017.nc | 14-Nov-2024 13:58 | 429590 | ||
| 46086_TS_DEWT_062018.nc | 14-Nov-2024 14:47 | 429602 | ||
| 46086_TS_DEWT_062019.nc | 14-Nov-2024 15:36 | 429587 | ||
| 46086_TS_DEWT_062020.nc | 14-Nov-2024 16:33 | 429591 | ||
| 46086_TS_DEWT_062021.nc | 14-Nov-2024 17:17 | 429584 | ||
| 46086_TS_DEWT_062022.nc | 14-Nov-2024 18:13 | 429604 | ||
| 46086_TS_DEWT_062023.nc | 14-Nov-2024 18:56 | 429671 | ||
| 46086_TS_DEWT_062025.nc | 01-Jul-2025 03:35 | 429678 | ||
| 46086_TS_DEWT_072004.nc | 14-Nov-2024 04:44 | 429638 | ||
| 46086_TS_DEWT_072005.nc | 14-Nov-2024 05:26 | 429687 | ||
| 46086_TS_DEWT_072006.nc | 14-Nov-2024 06:13 | 429680 | ||
| 46086_TS_DEWT_072007.nc | 14-Nov-2024 06:54 | 429679 | ||
| 46086_TS_DEWT_072009.nc | 14-Nov-2024 07:55 | 429690 | ||
| 46086_TS_DEWT_072010.nc | 14-Nov-2024 08:33 | 429691 | ||
| 46086_TS_DEWT_072011.nc | 14-Nov-2024 09:14 | 429680 | ||
| 46086_TS_DEWT_072012.nc | 14-Nov-2024 09:59 | 429685 | ||
| 46086_TS_DEWT_072013.nc | 14-Nov-2024 10:46 | 429691 | ||
| 46086_TS_DEWT_072014.nc | 14-Nov-2024 11:37 | 429678 | ||
| 46086_TS_DEWT_072015.nc | 14-Nov-2024 12:26 | 429907 | ||
| 46086_TS_DEWT_072016.nc | 14-Nov-2024 13:11 | 429903 | ||
| 46086_TS_DEWT_072017.nc | 14-Nov-2024 14:01 | 429900 | ||
| 46086_TS_DEWT_072018.nc | 14-Nov-2024 14:52 | 429907 | ||
| 46086_TS_DEWT_072019.nc | 14-Nov-2024 15:41 | 429902 | ||
| 46086_TS_DEWT_072020.nc | 14-Nov-2024 16:38 | 429903 | ||
| 46086_TS_DEWT_072021.nc | 14-Nov-2024 17:21 | 429905 | ||
| 46086_TS_DEWT_072022.nc | 14-Nov-2024 18:17 | 429900 | ||
| 46086_TS_DEWT_072023.nc | 14-Nov-2024 18:58 | 429907 | ||
| 46086_TS_DEWT_072025.nc | 01-Aug-2025 03:34 | 429903 | ||
| 46086_TS_DEWT_082004.nc | 14-Nov-2024 04:46 | 429903 | ||
| 46086_TS_DEWT_082005.nc | 14-Nov-2024 05:29 | 429903 | ||
| 46086_TS_DEWT_082006.nc | 14-Nov-2024 06:17 | 429906 | ||
| 46086_TS_DEWT_082007.nc | 14-Nov-2024 06:57 | 429903 | ||
| 46086_TS_DEWT_082009.nc | 14-Nov-2024 07:59 | 429905 | ||
| 46086_TS_DEWT_082010.nc | 14-Nov-2024 08:37 | 429903 | ||
| 46086_TS_DEWT_082011.nc | 14-Nov-2024 09:18 | 429774 | ||
| 46086_TS_DEWT_082012.nc | 14-Nov-2024 10:03 | 429901 | ||
| 46086_TS_DEWT_082013.nc | 14-Nov-2024 10:50 | 429907 | ||
| 46086_TS_DEWT_082014.nc | 14-Nov-2024 11:41 | 425058 | ||
| 46086_TS_DEWT_082015.nc | 14-Nov-2024 12:30 | 429027 | ||
| 46086_TS_DEWT_082016.nc | 14-Nov-2024 13:15 | 429594 | ||
| 46086_TS_DEWT_082017.nc | 14-Nov-2024 14:06 | 429612 | ||
| 46086_TS_DEWT_082018.nc | 14-Nov-2024 14:55 | 429604 | ||
| 46086_TS_DEWT_082019.nc | 14-Nov-2024 15:44 | 429589 | ||
| 46086_TS_DEWT_082020.nc | 14-Nov-2024 16:42 | 429609 | ||
| 46086_TS_DEWT_082021.nc | 14-Nov-2024 17:25 | 429582 | ||
| 46086_TS_DEWT_082022.nc | 14-Nov-2024 18:22 | 429669 | ||
| 46086_TS_DEWT_082023.nc | 14-Nov-2024 19:01 | 429689 | ||
| 46086_TS_DEWT_082025.nc | 01-Sep-2025 03:41 | 429678 | ||
| 46086_TS_DEWT_092004.nc | 14-Nov-2024 04:50 | 429679 | ||
| 46086_TS_DEWT_092005.nc | 14-Nov-2024 05:34 | 429686 | ||
| 46086_TS_DEWT_092006.nc | 14-Nov-2024 06:21 | 429682 | ||
| 46086_TS_DEWT_092007.nc | 14-Nov-2024 07:00 | 429679 | ||
| 46086_TS_DEWT_092009.nc | 14-Nov-2024 08:02 | 429690 | ||
| 46086_TS_DEWT_092010.nc | 14-Nov-2024 08:40 | 429684 | ||
| 46086_TS_DEWT_092011.nc | 14-Nov-2024 09:24 | 429681 | ||
| 46086_TS_DEWT_092012.nc | 14-Nov-2024 10:07 | 429686 | ||
| 46086_TS_DEWT_092013.nc | 14-Nov-2024 10:54 | 429690 | ||
| 46086_TS_DEWT_092014.nc | 14-Nov-2024 11:45 | 429902 | ||
| 46086_TS_DEWT_092015.nc | 14-Nov-2024 12:32 | 429902 | ||
| 46086_TS_DEWT_092016.nc | 14-Nov-2024 13:21 | 429904 | ||
| 46086_TS_DEWT_092017.nc | 14-Nov-2024 14:09 | 429901 | ||
| 46086_TS_DEWT_092018.nc | 14-Nov-2024 14:58 | 429903 | ||
| 46086_TS_DEWT_092019.nc | 14-Nov-2024 15:49 | 429906 | ||
| 46086_TS_DEWT_092020.nc | 14-Nov-2024 16:47 | 429898 | ||
| 46086_TS_DEWT_092021.nc | 14-Nov-2024 17:30 | 429905 | ||
| 46086_TS_DEWT_092022.nc | 14-Nov-2024 18:26 | 429902 | ||
| 46086_TS_DEWT_092023.nc | 14-Nov-2024 19:05 | 429898 | ||
| 46086_TS_DEWT_092025.nc | 01-Oct-2025 03:08 | 429906 | ||
| 46086_TS_DEWT_102004.nc | 14-Nov-2024 04:53 | 429902 | ||
| 46086_TS_DEWT_102005.nc | 14-Nov-2024 05:37 | 429901 | ||
| 46086_TS_DEWT_102006.nc | 14-Nov-2024 06:25 | 429906 | ||
| 46086_TS_DEWT_102007.nc | 14-Nov-2024 07:04 | 418866 | ||
| 46086_TS_DEWT_102008.nc | 14-Nov-2024 07:28 | 429904 | ||
| 46086_TS_DEWT_102009.nc | 14-Nov-2024 08:04 | 429905 | ||
| 46086_TS_DEWT_102010.nc | 14-Nov-2024 08:43 | 429886 | ||
| 46086_TS_DEWT_102011.nc | 14-Nov-2024 09:29 | 429900 | ||
| 46086_TS_DEWT_102012.nc | 14-Nov-2024 10:11 | 429263 | ||
| 46086_TS_DEWT_102013.nc | 14-Nov-2024 10:58 | 429267 | ||
| 46086_TS_DEWT_102014.nc | 14-Nov-2024 11:48 | 429257 | ||
| 46086_TS_DEWT_102015.nc | 14-Nov-2024 12:36 | 428778 | ||
| 46086_TS_DEWT_102016.nc | 14-Nov-2024 13:27 | 428911 | ||
| 46086_TS_DEWT_102017.nc | 14-Nov-2024 14:13 | 429274 | ||
| 46086_TS_DEWT_102018.nc | 14-Nov-2024 15:01 | 429279 | ||
| 46086_TS_DEWT_102019.nc | 14-Nov-2024 15:53 | 429280 | ||
| 46086_TS_DEWT_102020.nc | 14-Nov-2024 16:52 | 429335 | ||
| 46086_TS_DEWT_102021.nc | 14-Nov-2024 17:35 | 429335 | ||
| 46086_TS_DEWT_102022.nc | 14-Nov-2024 18:31 | 429312 | ||
| 46086_TS_DEWT_102023.nc | 14-Nov-2024 19:07 | 429344 | ||
| 46086_TS_DEWT_102024.nc | 12-Jan-2025 20:05 | 429355 | ||
| 46086_TS_DEWT_102025.nc | 01-Nov-2025 04:10 | 429356 | ||
| 46086_TS_DEWT_112003.nc | 14-Nov-2024 04:17 | 429361 | ||
| 46086_TS_DEWT_112004.nc | 14-Nov-2024 04:55 | 429350 | ||
| 46086_TS_DEWT_112005.nc | 14-Nov-2024 05:42 | 429362 | ||
| 46086_TS_DEWT_112006.nc | 14-Nov-2024 06:29 | 429360 | ||
| 46086_TS_DEWT_112007.nc | 14-Nov-2024 07:07 | 429352 | ||
| 46086_TS_DEWT_112008.nc | 14-Nov-2024 07:32 | 429356 | ||
| 46086_TS_DEWT_112009.nc | 14-Nov-2024 08:07 | 429557 | ||
| 46086_TS_DEWT_112010.nc | 14-Nov-2024 08:45 | 429564 | ||
| 46086_TS_DEWT_112011.nc | 14-Nov-2024 09:33 | 429563 | ||
| 46086_TS_DEWT_112012.nc | 14-Nov-2024 10:14 | 429563 | ||
| 46086_TS_DEWT_112013.nc | 14-Nov-2024 11:02 | 429562 | ||
| 46086_TS_DEWT_112014.nc | 14-Nov-2024 11:53 | 429559 | ||
| 46086_TS_DEWT_112015.nc | 14-Nov-2024 12:40 | 429562 | ||
| 46086_TS_DEWT_112016.nc | 14-Nov-2024 13:31 | 429562 | ||
| 46086_TS_DEWT_112017.nc | 14-Nov-2024 14:16 | 429561 | ||
| 46086_TS_DEWT_112018.nc | 14-Nov-2024 15:05 | 429562 | ||
| 46086_TS_DEWT_112019.nc | 14-Nov-2024 15:58 | 429559 | ||
| 46086_TS_DEWT_112020.nc | 14-Nov-2024 16:56 | 429562 | ||
| 46086_TS_DEWT_112021.nc | 14-Nov-2024 17:38 | 429562 | ||
| 46086_TS_DEWT_112022.nc | 14-Nov-2024 18:35 | 429560 | ||
| 46086_TS_DEWT_112023.nc | 14-Nov-2024 19:10 | 429565 | ||
| 46086_TS_DEWT_112024.nc | 17-Jan-2025 13:33 | 429563 | ||
| 46086_TS_DEWT_112025.nc | 01-Dec-2025 04:55 | 429562 | ||
| 46086_TS_DEWT_122003.nc | 14-Nov-2024 04:21 | 429558 | ||
| 46086_TS_DEWT_122004.nc | 14-Nov-2024 04:58 | 429565 | ||
| 46086_TS_DEWT_122005.nc | 14-Nov-2024 05:45 | 429595 | ||
| 46086_TS_DEWT_122006.nc | 14-Nov-2024 06:33 | 429600 | ||
| 46086_TS_DEWT_122007.nc | 14-Nov-2024 07:09 | 429598 | ||
| 46086_TS_DEWT_122008.nc | 14-Nov-2024 07:34 | 429592 | ||
| 46086_TS_DEWT_122009.nc | 14-Nov-2024 08:11 | 429609 | ||
| 46086_TS_DEWT_122010.nc | 14-Nov-2024 08:48 | 429616 | ||
| 46086_TS_DEWT_122011.nc | 14-Nov-2024 09:38 | 429603 | ||
| 46086_TS_DEWT_122012.nc | 14-Nov-2024 10:17 | 429604 | ||
| 46086_TS_DEWT_122013.nc | 14-Nov-2024 11:07 | 429685 | ||
| 46086_TS_DEWT_122014.nc | 14-Nov-2024 11:56 | 429679 | ||
| 46086_TS_DEWT_122015.nc | 14-Nov-2024 12:44 | 429677 | ||
| 46086_TS_DEWT_122016.nc | 14-Nov-2024 13:34 | 429688 | ||
| 46086_TS_DEWT_122017.nc | 14-Nov-2024 14:21 | 429678 | ||
| 46086_TS_DEWT_122018.nc | 14-Nov-2024 15:09 | 429679 | ||
| 46086_TS_DEWT_122019.nc | 14-Nov-2024 16:03 | 429683 | ||
| 46086_TS_DEWT_122020.nc | 14-Nov-2024 17:00 | 429689 | ||
| 46086_TS_DEWT_122021.nc | 14-Nov-2024 17:43 | 429679 | ||
| 46086_TS_DEWT_122022.nc | 14-Nov-2024 18:39 | 429690 | ||
| 46086_TS_DEWT_122023.nc | 14-Nov-2024 19:14 | 429692 | ||
| 46086_TS_DEWT_122024.nc | 22-Jan-2025 15:47 | 429683 | ||
| 46086_TS_DEWT_122025.nc | 01-Jan-2026 06:36 | 429900 | ||